Regional Weather Roundup
Issued by NWS State College, PA

Home | Current Version | Previous Version | Graphics & Text | Print | Product List | Glossary Off
Versions: 1 2 3 4 5 6 7 8 9 10 11 12 13 14 15 16 17 18 19 20 21 22 23 24 25 26 27 28 29 30 31 32 33 34 35 36 37 38 39 40 41 42 43 44 45 46 47 48 49 50

744
ASUS41 KCTP 261110
RWRCTP
REGIONAL WEATHER ROUNDUP
NATIONAL WEATHER SERVICE STATE COLLEGE PA
700 AM EDT TUE SEP 26 2017

Note: "fair" indicates few or no clouds below 12,000 feet with no
significant weather and/or obstructions to visibility.

* = STATION THAT DOES NOT REPORT PRECIPITATION /E.G. RAIN...SNOW...ETC/
    THUNDER OR FOG.

PAZ002>004-007>009-013>016-020>023-029>032-261200-
WESTERN PENNSYLVANIA

CITY           SKY/WX    TMP DP  RH WIND       PRES   REMARKS
ERIE           PTCLDY    70  64  81 S5        30.02R
MEADVILLE      CLEAR     66  64  93 CALM      30.06S
FRANKLIN*      FOG       63  63 100 CALM      30.07S VSB 1/2
NEW CASTLE     FOG       63  63 100 CALM      30.06R VSB 3/4
BEAVER COUNTY  CLEAR     66  63  88 CALM      30.05
BUTLER*        PTCLDY    64  62  93 CALM      30.05S
PITTSBURGH INT CLOUDY    66  63  90 CALM      30.04S
PITTSBURGH     CLOUDY    69  64  84 CALM      30.05R
INDIANA*       CLEAR     64  64 100 E6        30.09R
LATROBE        PTCLDY    63  63 100 CALM      30.06R FOG
WASHINGTON CO* CLOUDY    61  59  94 CALM      30.06R
$$

PAZ004>006-010>012-017>019-024>028-033>037-041-042-045-046-049>053-261200-
CENTRAL PENNSYLVANIA

CITY           SKY/WX    TMP DP  RH WIND       PRES   REMARKS
BRADFORD       MOCLDY    58  58 100 CALM      30.11S
DUBOIS         CLEAR     64  62  93 E3        30.08R FOG
CLEARFIELD     FOG       60  60 100 CALM      30.08S VSB 1/4
JOHNSTOWN      CLEAR     65  63  93 CALM      30.10R
ALTOONA        FOG       60  60 100 CALM      30.08R VSB 1/4
STATE COLLEGE  FOG       63  61  94 CALM      30.07R VSB 1/2
WILLIAMSPORT   PTCLDY    66  65  96 CALM      30.03S FOG
SELINSGROVE    FOG       63  63 100 CALM      30.04S VSB 1/4
FT INDIANTOWN  MOCLDY    65  65 100 CALM      30.04R FOG
CAPITAL CITY   PTCLDY    67  64  90 CALM      30.03R FOG
HARRISBURG     PTCLDY    68  67  96 CALM      30.02R FOG
YORK           CLEAR     60  60 100 CALM      30.04R FOG
$$

PAZ038>040-043-044-047-048-054-055-060>062-067>071-261200-
EASTERN PENNSYLVANIA

CITY           SKY/WX    TMP DP  RH WIND       PRES   REMARKS
SCRANTON       PTCLDY    66  63  90 E6        30.07S
MOUNT POCONO   CLEAR     61  61 100 N5        30.10S
ALLENTOWN      PTCLDY    66  62  87 CALM      30.04R
QUAKERTOWN*    SUNNY     63  63 100 CALM      30.05R
READING        PTCLDY    66  66 100 CALM      30.02R
LANCASTER      FOG       65  65 100 CALM      30.03R VSB 1/4
COATESVILLE    MOSUNNY   66  64  94 N3        30.04S
POTTSTOWN      PTCLDY    63  63 100 CALM      30.05R
BLUE BELL      PTCLDY    61  61 100 CALM      30.04R
DOYLESTOWN     CLEAR     63  62  97 CALM      30.04R
WILLOW GROVE   NOT AVBL
NORTH PHILA    CLOUDY    68  65  90 NE9       30.04S
PHILADELPHIA   CLOUDY    68  65  90 NE8       30.03R
$$




USA.gov is the U.S. government's official web portal to all federal, state and local government web resources and services.